Location: S�tio Afonso Gruber
(26.1760°S, 49.5250°W)
Time: 09:25:46
(UTC+00:00)

Cosmos 1844 Rocket - Pass Details

Date: 09 October 2020
Orbit: 823 x 846 km, 71.0° (Epoch: 22 October)

Event Time Altitude Azimuth Distance (km) Brightness Sun altitude
Exits shadow 07:44:44 21° 268° (W) 1,837 3.9 -14.9°
Maximum altitude 07:46:16 23° 244° (WSW) 1,730 3.9 -14.6°
Drops below altitude 10° 07:50:42 10° 193° (SSW) 2,473 5.2 -13.6°
Sets 07:53:41 0° 178° (S) 3,410 6.1 -13.0°
